Portada
METAR-TAF:

METAR-TAF

Aeroports :

Newton Municipal Airport

Newton, Iowa, Estats Units d'Amèrica

latitud: 41-41N, longitud: 093-01W, altitud: 290 m

Observació

L'informe es va fer fa 24 minuts, a les 02:15 UTC
Vent 3 kt del Nord
Temperatura 24°C
Humitat 89%
Pressió 1013 hPa
Visibilitat: 16.1 km
Cel clar

METAR: KTNU 160215Z AUTO 36003KT 10SM CLR 24/22 A2991 RMK AO2 PWINO

Hora: 21:39 (02:39 UTC)


TAF: manca

Observacions i pronòstics meteorològics de més de 4000 aeroports (METAR i TAF).

Les estacions disponibles són els punts grocs i vermells al mapa.

Posi el ratolí al punt desitjat per veure el nom de l'estació.

Feu clic per veure les observacions i els pronòstics meteorològics.

Per canviar el mapa: feu clic els botons verds amb una creu de color negre per apropar; al botó verd amb un guió per allunyar la imatge; o en les fletxes verdes per a mapes adjacents.


METAR-TAF: